CUBESX-HSE 3 (RS42S)

Last updated on Thu Nov 21 2024 00:03:02 GMT+0000 (Coordinated Universal Time)

1 57178U 23091N 24325.55738638 .00015286 00000+0 83869-3 0 9992 2 57178 97.5936 17.1765 0014520 302.2814 57.7010 15.14160392 77127
UTC large
Height (km)
Speed (km/s)
/
Latitude / Longitude
Inclination (degrees)
Orbital Period (minutes)
Azimuth
Elevation
Range (km)
Doppler Factor

Next 0 passes for location: London (51.5072 / 0.1276)

Sorry there are no passes over London.